Powrót do katalogu

YAOGAN-30 P

AktywnyMilitariaVLEO
NORAD 44450·PAYLOAD·🇨🇳 China

Wystrzelony Jul 26, 2019 z Xichang Satellite Launch Center

Loading…

Następne Przeloty (najbliższe 24 godziny)

TLE

ŚwieżeSource: Space-Track

Epoka: Sep 14, 2026, 15:13 UTC

1 44450U 19045B   26257.63416741  .00002150  00000-0  15839-3 0  9997
2 44450  34.9917 144.2665 0007751 142.7945 217.3301 15.03063509390126

Śledź YAOGAN-30 P w czasie rzeczywistym z AllMySat

Download on the App Store